Location: Saignon
(43.8618°N, 5.4278°E)
Time: 05:19:15
(UTC+00:00)

Daily predictions for brighter satellites

Satellite Brightness Start Highest point End
(mag) Time Altitude Azimuth Time Altitude Azimuth Time Altitude Azimuth
Cosmos 2227 Rocket 4.2 01:23:02 10° NNW 01:25:13 22° N 01:25:13 22° N
Lacrosse 5 4.4 01:32:48 16° ENE 01:32:48 16° ENE 01:34:06 10° ENE
USA 234 4.2 01:27:07 10° E 01:33:10 42° NNE 01:37:44 17° NW
ADEOS II 3.7 01:35:34 10° NNE 01:38:28 31° NE 01:38:28 31° NE
SL-16 R/B 4.3 01:57:26 21° NNW 01:57:26 21° NNW 01:59:22 10° NNW
IDEFIX/ARIANE 42P 4.4 01:49:12 10° NE 01:53:30 25° E 01:53:40 25° E
ARIANE 5 R/B 3.9 01:57:57 10° NNE 02:01:51 35° ENE 02:01:51 35° ENE
CZ-2D R/B 3.8 01:59:43 10° N 02:02:04 25° NNW 02:02:04 25° NNW
ATLAS 5 CENTAUR R/B 3.9 02:07:56 19° N 02:07:56 19° N 02:09:47 10° NNE
Cosmos 2297 Rocket 4.5 02:09:52 10° NNW 02:10:32 14° NNW 02:10:32 14° NNW
Resurs 1-4 Rocket 3.9 02:13:46 10° N 02:15:58 22° NNW 02:15:58 22° NNW
Cosmos 2082 4.1 02:14:09 10° NNW 02:19:48 61° ENE 02:20:23 58° E
X-37B 4.1 02:29:08 10° ENE 02:29:08 10° ENE 02:29:12 10° ENE
SJ 16-02 4.4 02:27:17 10° NNE 02:29:45 14° NE 02:32:11 10° E
Meteor 1-25 Rocket 4.4 02:26:16 10° N 02:32:06 70° ENE 02:33:00 59° SE
Cosmos 1697 Rocket 2.7 02:32:33 75° ENE 02:32:33 75° ENE 02:37:46 10° NNE
ASTEX 1 4.1 02:30:53 10° NNE 02:35:46 50° E 02:36:23 47° ESE
H-2A R/B 4.2 02:32:38 10° ESE 02:36:17 27° ENE 02:40:00 10° N
Cosmos 1980 Rocket 2.9 02:35:19 42° SE 02:36:19 47° ESE 02:41:44 10° NE
IRS-P3 4.4 02:31:01 10° NNE 02:35:28 62° N 02:35:28 62° N
USA 267 3.2 02:34:51 10° NE 02:41:20 68° NW 02:42:17 60° WNW
Cosmos 2263 Rocket 4.1 02:40:55 10° N 02:45:49 29° NE 02:50:42 10° ESE
SL-8 R/B 4.3 02:46:01 52° N 02:46:01 52° N 02:50:42 10° E
ERS-1 4.5 02:40:54 10° NNE 02:45:42 78° N 02:45:42 78° N
USA 307 3.5 02:52:25 53° NE 02:52:25 53° NE 02:55:44 10° NE
USA 308 3.4 02:55:23 57° NE 02:55:23 57° NE 02:58:50 10° NE
Cosmos 1821 Rocket 3.8 02:49:14 10° NNW 02:55:31 71° W 02:56:29 60° SW
Cosmos 1470 Rocket 4.3 02:52:19 10° N 02:55:25 44° N 02:55:25 44° N
Spot 4 Rocket 3.9 02:53:48 10° NNE 02:58:58 84° ESE 02:59:44 65° S
Landsat 5 4.4 02:59:47 10° SSE 03:04:10 52° ENE 03:08:32 10° N
Celestis-02/Orion 38 4.4 03:00:23 10° SSE 03:05:41 77° WSW 03:10:53 10° NNW
Cosmos 1782 3.1 03:10:11 59° N 03:10:11 59° N 03:13:32 10° N
ERBS 4.4 03:09:57 20° SE 03:10:01 20° SE 03:12:33 10° ENE
Cosmos 1934 Rocket 3.8 03:04:28 10° N 03:10:34 90° SW 03:16:39 10° S
Cosmos 1777 Rocket 3.8 03:05:56 10° NNW 03:11:08 67° WSW 03:12:06 54° SSW
Lacrosse 5 1.9 03:12:00 56° WNW 03:12:32 60° NW 03:17:33 10° NE
Cosmos 1238 Rocket 4.0 03:06:12 10° N 03:12:52 85° E 03:19:01 10° S
ADEOS Rocket 4.3 03:08:20 10° SE 03:14:45 44° ENE 03:20:36 10° N
Cosmos 1515 Rocket 3.5 03:15:08 67° WNW 03:15:08 67° WNW 03:19:26 10° N
USA 234 3.1 03:09:20 10° SE 03:15:52 79° SW 03:22:26 10° NW
CZ-2C R/B 2.6 03:14:50 10° NNE 03:18:31 85° N 03:18:31 85° N
Meteor 1-20 Rocket 4.4 03:13:54 10° NNW 03:18:42 45° W 03:18:42 45° W
Nadezhda 3 Rocket 4.2 03:18:39 44° W 03:19:31 46° WNW 03:25:25 10° N
ADEOS II 3.4 03:15:55 10° NNW 03:19:24 23° NW 03:19:24 23° NW
USA 276 3.6 03:21:38 32° N 03:21:38 32° N 03:24:12 10° NE
Cosmos 972 Rocket 4.2 03:24:15 43° WNW 03:24:25 43° WNW 03:29:07 10° N
Cosmos 44 3.0 03:24:49 53° SSW 03:25:50 84° ESE 03:30:27 10° NE
Cosmos 1356 3.8 03:25:44 10° NNW 03:28:28 53° NNW 03:28:28 53° NNW
MSX 3.7 03:23:45 10° N 03:29:32 72° WNW 03:32:39 28° SSW
Cosmos 921 Rocket 3.2 03:27:48 30° S 03:29:45 64° ESE 03:33:54 10° NNE
Cosmos 2278 3.7 03:28:10 41° SW 03:30:04 63° WNW 03:35:45 10° NNE
Timation 1 Rocket 4.2 03:24:37 10° NNW 03:30:35 70° WSW 03:36:33 10° SSE
Cosmos 2228 Rocket 2.9 03:31:12 33° S 03:33:09 86° W 03:37:34 10° N
IDEFIX/ARIANE 42P 2.9 03:28:16 10° N 03:33:16 45° WNW 03:34:28 38° WSW
Cosmos 1605 Rocket 4.0 03:26:56 10° N 03:33:23 88° E 03:39:47 10° S
CZ-3B R/B 3.4 03:32:05 22° NW 03:33:35 30° N 03:41:10 10° ENE
Cosmos 1933 Rocket 3.6 03:29:54 10° NNW 03:34:07 49° W 03:34:17 49° WSW
Cosmos 1535 Rocket 4.5 03:27:53 10° NNW 03:34:12 64° W 03:40:29 10° S
Cosmos 2369 4.4 03:36:40 33° W 03:38:09 38° NW 03:43:29 10° NNE
ARIANE 5 R/B 3.4 03:37:18 10° N 03:41:38 29° WNW 03:42:11 28° WNW
CZ-4C R/B 3.1 03:42:39 51° WSW 03:42:55 53° W 03:46:28 10° NNW
ALOS 4.0 03:44:11 10° NNE 03:48:25 33° E 03:52:37 10° SSE
IRIDIUM 106 4.3 03:44:04 10° N 03:49:19 90° E 03:54:32 10° S
Cosmos 1536 4.4 03:48:07 10° N 03:51:58 39° ENE 03:55:47 10° SSE
Cosmos 1869 Rocket 3.4 03:48:48 10° N 03:53:09 80° W 03:57:28 10° S
GENESIS II 4.3 03:51:47 25° SSW 03:54:01 79° ESE 03:58:04 10° NE
Meteor 1-4 Rocket 2.5 03:52:32 14° S 03:55:25 80° E 03:58:55 10° NNE
Cosmos 1484 Rocket 4.3 03:53:29 10° NNE 03:57:15 39° E 04:01:00 10° SSE
USA 305 4.0 03:58:51 22° WNW 04:00:49 34° NNW 04:04:43 10° NE
X-37B 0.7 04:01:25 32° WNW 04:02:44 71° N 04:05:54 10° E
USA 306 4.0 04:02:46 21° WNW 04:04:55 33° NNW 04:08:47 10° NE
Cosmos 1727 Rocket 4.0 03:59:19 10° S 04:05:41 84° W 04:12:04 10° N
Cosmos 1763 Rocket 3.7 04:00:24 10° SSW 04:05:41 74° ESE 04:11:01 10° NNE
Cosmos 389 Rocket 4.0 04:06:11 20° WNW 04:06:11 20° WNW 04:08:42 10° NNW
Cosmos 2100 Rocket 4.5 04:01:36 10° N 04:07:59 67° E 04:14:18 10° SSE
Meteor 1-31 Rocket 4.1 04:04:24 10° NNE 04:08:01 40° E 04:11:39 10° S
SJ 16-02 1.3 04:04:26 10° NNW 04:08:47 64° WSW 04:13:08 10° S
Cosmos 2360 Rocket 3.9 04:05:20 10° SSE 04:10:23 34° ESE 04:15:27 10° NE
PSLV R/B 3.7 04:06:31 10° N 04:10:35 49° WNW 04:14:17 12° SW
H-2A R/B 2.8 04:08:16 10° SSW 04:12:07 31° W 04:16:06 10° NNW
ERS-2 2.4 04:09:31 10° S 04:13:00 44° W 04:16:33 10° NNW
Cosmos 1697 Rocket 4.2 04:14:18 15° WNW 04:16:47 19° NW 04:20:43 10° N
CZ-2C R/B 2.7 04:13:19 10° N 04:18:15 52° WNW 04:23:16 10° SW
Gbstr 26 Del rocket 4.5 04:11:59 10° WNW 04:20:04 84° NNE 04:27:07 10° ESE
Cosmos 1980 Rocket 3.2 04:17:07 17° WSW 04:20:30 30° NW 04:25:27 10° N
FALCON 9 DEB 4.4 04:18:02 10° SSW 04:21:12 37° SE 04:24:24 10° ENE
PAYLOAD A 4.3 04:17:22 10° N 04:21:45 39° WNW 04:26:06 10° SW
USA 267 4.3 04:18:00 10° NE 04:23:41 33° NNW 04:29:22 10° WNW
Cosmos 2322 Rocket 2.3 04:19:53 10° SSW 04:25:33 84° ESE 04:31:18 10° NNE
FENGYUN 3A 3.8 04:20:34 10° NNE 04:25:59 79° ESE 04:31:24 10° S
SJ-6F 4.4 04:23:26 10° N 04:27:31 62° WNW 04:31:33 10° SSW
NOSS 3-3 (A) 4.2 04:22:36 13° WSW 04:27:37 54° NW 04:34:04 10° NNE
NOSS 3-3 (C) 4.1 04:22:46 13° WSW 04:27:45 54° NW 04:34:08 10° NNE
Cosmos 990 Rocket 4.0 04:23:20 10° NNW 04:28:28 64° WSW 04:33:37 10° S
SL-8 R/B 3.7 04:24:00 10° WNW 04:28:45 72° SSW 04:33:29 10° SE
Cosmos 1459 Rocket 4.0 04:23:36 10° N 04:29:45 88° E 04:35:47 10° S
Cosmos 2263 Rocket 2.4 04:24:32 10° NW 04:29:57 47° WSW 04:35:21 10° S
Cosmos 1812 3.7 04:27:26 12° SW 04:30:14 26° WNW 04:33:32 10° NNW
Cosmos 468 Rocket 4.1 04:25:07 10° SSW 04:30:21 61° WNW 04:35:36 10° NNE
USA 307 4.4 04:28:36 11° WNW 04:32:00 26° NNW 04:35:38 10° NE
SL-16 R/B 2.2 04:27:37 10° SSW 04:33:16 71° WNW 04:38:58 10° NNE
COSMO-SKYMED 1 3.4 04:30:36 10° SSE 04:34:51 57° ENE 04:39:07 10° N
USA 308 4.4 04:31:34 10° WNW 04:35:07 26° NNW 04:38:44 10° NE
Cosmos 1844 Rocket 4.0 04:31:29 10° NNW 04:36:55 45° ENE 04:42:19 10° SE
SL-4 R/B 2.9 04:33:39 10° SW 04:38:10 58° SE 04:42:54 10° ENE
Cosmos 540 Rocket 3.7 04:33:49 10° SSW 04:38:57 74° ESE 04:44:08 10° NNE
Cosmos 44 Rocket 4.2 04:35:59 10° SSW 04:40:31 50° ESE 04:45:12 10° NE
ATLAS CENTAUR R/B 4.1 04:33:21 10° NW 04:41:41 35° NNE 04:45:23 10° E
Cosmos 1666 3.3 04:39:35 10° NNW 04:43:05 34° W 04:46:31 10° SSW
ATLAS 2AS CENTAUR R/B 3.3 04:36:12 10° NNW 04:43:42 65° NE 04:50:33 10° SE
ERBS 2.9 04:42:54 10° WSW 04:46:03 42° NW 04:49:17 10° NE
CZ-4B R/B 2.1 04:44:25 10° SSW 04:47:08 28° W 04:49:57 10° NW
Cosmos 1544 4.5 04:45:33 10° N 04:49:00 43° ENE 04:52:26 10° SSE
H-2A R/B 4.4 04:49:48 10° NNE 04:53:47 36° E 04:57:51 10° SSE
Lacrosse 5 3.5 04:52:26 10° WNW 04:56:22 22° NNW 05:00:20 10° NE
Cosmos 1898 Rocket 4.0 04:52:03 10° NW 04:56:56 39° WSW 05:01:48 10° S
